• In Hungary
  • List of Countries
  • For 7 days
  • Water Temperature
  • Satellite Maps
  • Weather Map
  • News
  • Weather Widgets
  • user-avatar
    Login

    Hourly Weather Lahaur

    Today, 20 August, Sunday

    Time Temperature Precipitation Wind Pressure Humidity
    00:00 +30°C° 0 mm 3 mps 735 mmHg 68%
    01:00 +30°C° 0 mm 3 mps 735 mmHg 69%
    02:00 +29°C° 0 mm 3 mps 735 mmHg 71%
    03:00 +29°C° 0 mm 3 mps 735 mmHg 72%
    04:00 +28°C° 0 mm 3 mps 735 mmHg 73%
    05:00 +28°C° 0 mm 2 mps 735 mmHg 72%
    06:00 +29°C° 0 mm 2 mps 735 mmHg 68%
    07:00 +31°C° 0 mm 2 mps 736 mmHg 63%
    08:00 +33°C° 0 mm 3 mps 736 mmHg 59%
    09:00 +35°C° 0 mm 3 mps 736 mmHg 52%
    10:00 +37°C° 0 mm 3 mps 735 mmHg 46%
    11:00 +38°C° 0 mm 3 mps 736 mmHg 42%
    12:00 +39°C° 0 mm 3 mps 735 mmHg 39%
    13:00 +40°C° 0 mm 2 mps 734 mmHg 35%
    14:00 +41°C° 0 mm 2 mps 734 mmHg 32%
    15:00 +41°C° 0 mm 2 mps 733 mmHg 31%
    16:00 +41°C° 0 mm 2 mps 733 mmHg 31%
    17:00 +39°C° 0 mm 2 mps 733 mmHg 36%
    18:00 +38°C° 0 mm 2 mps 733 mmHg 39%
    19:00 +37°C° 0 mm 2 mps 733 mmHg 42%
    20:00 +36°C° 0 mm 2 mps 733 mmHg 45%
    21:00 +35°C° 0 mm 2 mps 733 mmHg 47%
    22:00 +35°C° 0 mm 2 mps 733 mmHg 50%
    23:00 +34°C° 0 mm 2 mps 733 mmHg 52%

    Tomorrow, 21 August, Monday

    Time Temperature Precipitation Wind Pressure Humidity
    00:00 +34°C° 0 mm 2 mps 733 mmHg 53%
    01:00 +32°C° 0 mm 2 mps 733 mmHg 54%
    02:00 +32°C° 0 mm 2 mps 733 mmHg 55%
    03:00 +31°C° 0 mm 2 mps 733 mmHg 57%
    04:00 +31°C° 0 mm 2 mps 733 mmHg 58%
    05:00 +31°C° 0 mm 2 mps 733 mmHg 60%
    06:00 +32°C° 0 mm 2 mps 733 mmHg 57%
    07:00 +34°C° 0 mm 2 mps 734 mmHg 54%
    08:00 +35°C° 0 mm 2 mps 734 mmHg 51%
    09:00 +37°C° 0 mm 2 mps 734 mmHg 46%
    10:00 +39°C° 0 mm 2 mps 734 mmHg 41%
    11:00 +40°C° 0 mm 2 mps 734 mmHg 36%
    12:00 +41°C° 0 mm 2 mps 733 mmHg 34%
    13:00 +42°C° 0 mm 2 mps 732 mmHg 32%
    14:00 +42°C° 0 mm 2 mps 732 mmHg 30%
    15:00 +42°C° 0 mm 2 mps 732 mmHg 29%
    16:00 +42°C° 0 mm 2 mps 731 mmHg 29%
    17:00 +42°C° 0 mm 2 mps 731 mmHg 28%
    18:00 +41°C° 0 mm 2 mps 731 mmHg 32%
    19:00 +39°C° 0 mm 3 mps 731 mmHg 36%
    20:00 +38°C° 0 mm 3 mps 731 mmHg 39%
    21:00 +37°C° 0 mm 3 mps 731 mmHg 42%
    22:00 +36°C° 0 mm 3 mps 731 mmHg 45%
    23:00 +36°C° 0 mm 3 mps 732 mmHg 47%

    Day after tomorrow, 22 August, Tuesday

    Time Temperature Precipitation Wind Pressure Humidity
    00:00 +35°C° 0 mm 3 mps 732 mmHg 51%
    01:00 +35°C° 0 mm 3 mps 732 mmHg 55%
    02:00 +34°C° 0 mm 3 mps 732 mmHg 58%
    03:00 +33°C° 0 mm 3 mps 732 mmHg 61%
    04:00 +33°C° 0 mm 3 mps 732 mmHg 65%
    05:00 +31°C° 0 mm 3 mps 732 mmHg 68%
    06:00 +33°C° 0.5 mm 3 mps 733 mmHg 66%
    07:00 +34°C° 0.5 mm 3 mps 733 mmHg 65%
    08:00 +34°C° 0.5 mm 3 mps 733 mmHg 63%
    09:00 +36°C° 0 mm 2 mps 733 mmHg 55%
    10:00 +39°C° 0 mm 2 mps 733 mmHg 46%
    11:00 +41°C° 0 mm 1 mps 734 mmHg 37%
    12:00 +42°C° 0 mm 1 mps 733 mmHg 34%
    13:00 +42°C° 0 mm 1 mps 733 mmHg 31%
    14:00 +43°C° 0 mm 1 mps 732 mmHg 29%
    15:00 +43°C° 0 mm 1 mps 732 mmHg 29%
    16:00 +43°C° 0 mm 1 mps 732 mmHg 28%
    17:00 +42°C° 0 mm 1 mps 731 mmHg 28%
    18:00 +41°C° 0 mm 1 mps 731 mmHg 31%
    19:00 +40°C° 0 mm 1 mps 732 mmHg 33%
    20:00 +39°C° 0 mm 2 mps 732 mmHg 36%
    21:00 +38°C° 0 mm 2 mps 732 mmHg 38%
    22:00 +38°C° 0 mm 3 mps 732 mmHg 41%
    23:00 +37°C° 0 mm 4 mps 732 mmHg 44%

    23 August, Wednesday

    Time Temperature Precipitation Wind Pressure Humidity
    00:00 +36°C° 0 mm 3 mps 732 mmHg 46%
    01:00 +36°C° 0 mm 3 mps 732 mmHg 49%
    02:00 +35°C° 0 mm 3 mps 732 mmHg 52%
    03:00 +35°C° 0.1 mm 3 mps 732 mmHg 53%
    04:00 +34°C° 0.1 mm 3 mps 732 mmHg 55%
    05:00 +34°C° 0.1 mm 2 mps 733 mmHg 57%
    06:00 +34°C° 0.3 mm 2 mps 733 mmHg 58%
    07:00 +34°C° 0.3 mm 3 mps 734 mmHg 58%
    08:00 +35°C° 0.3 mm 3 mps 734 mmHg 59%
    09:00 +37°C° 0 mm 3 mps 734 mmHg 52%
    10:00 +39°C° 0 mm 2 mps 734 mmHg 44%
    11:00 +41°C° 0 mm 2 mps 734 mmHg 37%
    12:00 +42°C° 0 mm 1 mps 734 mmHg 34%
    13:00 +43°C° 0 mm 1 mps 733 mmHg 32%
    14:00 +44°C° 0 mm 1 mps 733 mmHg 29%
    15:00 +43°C° 0 mm 1 mps 732 mmHg 30%
    16:00 +43°C° 0 mm 1 mps 732 mmHg 31%
    17:00 +42°C° 0 mm 1 mps 732 mmHg 31%
    18:00 +41°C° 0 mm 1 mps 732 mmHg 33%
    19:00 +40°C° 0 mm 2 mps 732 mmHg 35%
    20:00 +39°C° 0 mm 2 mps 732 mmHg 37%
    21:00 +39°C° 0 mm 2 mps 732 mmHg 39%
    22:00 +38°C° 0 mm 2 mps 732 mmHg 42%
    23:00 +37°C° 0 mm 3 mps 732 mmHg 44%

    24 August, Thursday

    Time Temperature Precipitation Wind Pressure Humidity
    00:00 +37°C° 0 mm 3 mps 732 mmHg 46%
    01:00 +36°C° 0 mm 3 mps 732 mmHg 48%
    02:00 +35°C° 0 mm 3 mps 732 mmHg 50%
    03:00 +35°C° 0 mm 3 mps 732 mmHg 52%
    04:00 +35°C° 0 mm 3 mps 732 mmHg 55%
    05:00 +34°C° 0 mm 3 mps 732 mmHg 57%
    06:00 +34°C° 0.1 mm 4 mps 733 mmHg 60%
    07:00 +34°C° 0.1 mm 4 mps 733 mmHg 62%
    08:00 +34°C° 0.1 mm 4 mps 734 mmHg 65%
    09:00 +36°C° 0 mm 4 mps 734 mmHg 57%
    10:00 +38°C° 0 mm 4 mps 734 mmHg 50%
    11:00 +40°C° 0 mm 3 mps 734 mmHg 42%
    12:00 +42°C° 0 mm 3 mps 733 mmHg 38%
    13:00 +43°C° 0 mm 2 mps 732 mmHg 34%
    14:00 +44°C° 0 mm 1 mps 732 mmHg 29%
    15:00 +44°C° 0.1 mm 1 mps 732 mmHg 30%
    16:00 +43°C° 0.1 mm 1 mps 732 mmHg 31%
    17:00 +42°C° 0.1 mm 1 mps 731 mmHg 32%
    18:00 +41°C° 0.1 mm 2 mps 732 mmHg 37%
    19:00 +39°C° 0.1 mm 3 mps 732 mmHg 42%
    20:00 +37°C° 0.1 mm 4 mps 732 mmHg 47%
    21:00 +36°C° 0 mm 4 mps 732 mmHg 51%
    22:00 +35°C° 0 mm 4 mps 732 mmHg 54%
    23:00 +34°C° 0 mm 4 mps 732 mmHg 58%

    25 August, Friday

    Time Temperature Precipitation Wind Pressure Humidity
    00:00 +34°C° 0.1 mm 4 mps 732 mmHg 61%
    01:00 +33°C° 0.1 mm 4 mps 731 mmHg 64%
    02:00 +33°C° 0.1 mm 3 mps 731 mmHg 67%
    03:00 +32°C° 0.2 mm 4 mps 731 mmHg 68%
    04:00 +32°C° 0.2 mm 4 mps 731 mmHg 70%
    05:00 +32°C° 0.2 mm 4 mps 731 mmHg 71%
    06:00 +32°C° 0.8 mm 4 mps 732 mmHg 70%
    07:00 +32°C° 0.8 mm 4 mps 732 mmHg 70%
    08:00 +33°C° 0.8 mm 5 mps 733 mmHg 69%
    09:00 +35°C° 0.1 mm 4 mps 733 mmHg 61%
    10:00 +37°C° 0.1 mm 4 mps 733 mmHg 53%
    11:00 +40°C° 0.1 mm 4 mps 733 mmHg 45%
    12:00 +41°C° 0 mm 4 mps 732 mmHg 42%
    13:00 +42°C° 0 mm 3 mps 731 mmHg 39%
    14:00 +43°C° 0 mm 3 mps 731 mmHg 35%
    15:00 +43°C° 0 mm 3 mps 730 mmHg 36%
    16:00 +42°C° 0 mm 3 mps 730 mmHg 36%
    17:00 +42°C° 0 mm 3 mps 729 mmHg 36%
    18:00 +40°C° 0.1 mm 3 mps 729 mmHg 40%
    19:00 +38°C° 0.1 mm 3 mps 729 mmHg 44%
    20:00 +37°C° 0.1 mm 4 mps 729 mmHg 49%
    21:00 +35°C° 3.9 mm 4 mps 730 mmHg 57%
    22:00 +34°C° 3.9 mm 4 mps 730 mmHg 66%
    23:00 +32°C° 3.9 mm 4 mps 730 mmHg 74%
    Show more